Tracking 29059 objects as of 19-Jun-2024
HD Live streaming from Space Station
objects crossing your sky now

OBJECT X

Track OBJECT X now!
10-day predictions


NORAD ID: 57025
Int'l Code: 2023-085X
Perigee: 508.3 km
Apogee: 522.9 km
Inclination: 97.5 °
Period: 94.8 minutes
Semi major axis: 6886 km
RCS: Unknown
Launch date: June 15, 2023
Source: People's Republic of China (PRC)
Launch site: Taiyaun Space Center, China (TSC)
Your satellite tracking list
Your tracking list is empty




NASA's NSSDC Master Catalog

Two Line Element Set (TLE):
1 57025U 23085X   24170.89258569  .00015518  00000-0  74001-3 0  9998
2 57025  97.4675 274.8731 0010547  93.9094 266.3347 15.19131623 55892
Source of the keplerian elements: AFSPC